www.pogodaiklimat.ru

Погода и климат >> Архив погоды >> Индия >> Jodhpur


ПОГОДА в Jodhpur

  • Прогноз погоды в Jodhpur
  • Монитор погоды в Jodhpur
  • Климат города

АРХИВ ПОГОДЫ в Jodhpur

Время (UTC), дата Ветер
(напр.,м/с)
 
Видим.   Явления Облачность Т
(С)
Тd
(С)
f
(%)
Тe
(С)
Тes
(С)
Комфортность P
(гПа)
Po
(гПа)
Тmin
(С)
Tmax
(С)
R
(мм)
R24
(мм)
S
(см)
21 18.06 штиль 0 2000 м мгла ясно +32.2 +21.9 55 +41 +41 опасность
перегрева
998.6 999.0
00 19.06 штиль 0 2000 м мгла 6/3 1050 м
[Sc Ac trans]
+31.6 +21.2 54 +39 +39 очень
душно
999.0 999.0
03 19.06 ЮЗ 1 2000 м мгла ясно +32.8 +22.6 55 +42 +51 опасность
перегрева
1000.7 1001.0 +31.3 +38.1
06 19.06 ЮЗ 2 2000 м мгла ясно +36.0 +21.7 44 +44 +66 опасность
перегрева
1000.4 1000.0
09 19.06 ЮЗ 1 2000 м мгла 5/5 900 м
[Sc]
+39.2 +20.7 34 +45 +56 опасность
перегрева
998.4 998.0
12 19.06 З 1 2000 м мгла 4/4 900 м
[Sc]
+39.4 +20.6 34 +45 +48 опасность
перегрева
996.6 997.0 +40.0
15 19.06 ЮЗ 2 2000 м мгла 3/3 900 м
[Sc]
+37.6 +18.5 33 +42 +42 опасность
перегрева
997.5 998.0
18 19.06 ЮВ 1 2000 м мгла ясно +34.6 +20.3 43 +41 +41 опасность
перегрева
999.3 999.0
21 19.06 штиль 0 2000 м мгла ясно +33.0 +20.1 47 +39 +39 очень
душно
999.3 999.0
00 20.06 ЮЗ 1 2000 м мгла 3/0
[Ac trans]
+32.4 +20.1 48 +39 +39 очень
душно
999.7 1000.0
03 20.06 ЮЗ 1 2000 м мгла 3/0
[Ac trans]
+32.2 +20.9 51 +39 +46 очень
душно
1001.7 1002.0 +31.5 +40.0
06 20.06 ЮЗ 1 2000 м мгла ясно +36.2 +14.3 27 +37 +61 опасность
солнечного
удара
1001.5 1002.0
09 20.06 ЮВ 1 2000 м мгла ясно +40.4 +11.3 18 +39 +61 опасность
солнечного
удара
998.9 999.0
12 20.06 ЮЗ 2 2000 м мгла ясно +41.0 +8.9 15 +39 +43 очень
жарко
996.6 997.0 +41.3
15 20.06 ЮЗ 1 2000 м мгла ясно +38.0 +13.4 23 +38 +38 очень
жарко
998.4 998.0
18 20.06 ЮЗ 1 2000 м мгла ясно +35.2 +16.8 34 +38 +38 очень
душно
999.8 1000.0
21 20.06 штиль 0 2000 м мгла ясно +33.2 +16.5 37 +36 +36 очень
душно
999.6 1000.0
00 21.06 З 1 2000 м мгла 3/3 1200 м
[Sc]
+32.4 +17.8 42 +37 +37 очень
душно
1000.1 1000.0
03 21.06 ЮЗ 2 2000 м мгла 4/1 1200 м
[Sc Ac trans]
+33.0 +22.2 53 +42 +47 опасность
перегрева
1002.3 1002.0 +31.2 +41.3
06 21.06 ЮЗ 1 2000 м мгла ясно +37.0 +21.2 40 +44 +68 опасность
перегрева
1001.5 1002.0
09 21.06 Ю 2 2000 м мгла 1/1 900 м
[Sc]
+40.8 +18.6 28 +45 +62 опасность
перегрева
998.0 998.0
12 21.06 СЗ 1 2000 м мгла 3/3 900 м
[Sc]
+41.4 +15.1 22 +43 +46 опасность
перегрева
995.0 995.0 +41.7
15 21.06 штиль 0 2000 м мгла ясно +37.8 +17.6 31 +41 +41 опасность
перегрева
997.1 997.0
18 21.06 ЮЗ 1 2000 м мгла ясно +36.8 +19.0 35 +41 +41 опасность
перегрева
998.4 998.0
21 21.06 ЮЗ 1 2000 м ясно +34.2 +19.8 43 +40 +40 очень
душно
998.5 999.0
00 22.06 штиль 0 2000 м мгла ясно +32.8 +18.7 43 +38 +38 очень
душно
999.6 1000.0
03 22.06 ЮЗ 2 2000 м мгла 4/0
[Ac trans]
+33.0 +22.9 55 +43 +48 опасность
перегрева
1001.6 1002.0 +32.1 +41.7
06 22.06 З 2 2000 м мгла ясно +36.8 +23.0 45 +46 +67 опасность
перегрева
1000.8 1001.0
09 22.06 ЮЗ 1 2000 м мгла 3/0
[Ac trans]
+40.8 +20.2 31 +46 +64 опасность
перегрева
997.7 998.0
12 22.06 ЮЗ 1 2000 м мгла 3/3 1050 м
[Cu med, cong]
+41.6 +18.5 26 +45 +48 опасность
перегрева
995.2 995.0 +41.6
15 22.06 ЮЗ 2 2000 м мгла 5/5 900 м
[Cu Sc]
+38.2 +18.2 31 +42 +42 опасность
перегрева
997.2 997.0
18 22.06 ЮВ 2 2000 м мгла 4/3 1200 м
[Sc Ac trans]
+33.4 +18.0 40 +38 +38 очень
душно
999.5 1000.0
21 22.06 ЮЗ 1 2000 м мгла ясно +33.0 +19.4 45 +39 +39 очень
душно
998.0 998.0
00 23.06 ЮЗ 2 2000 м мгла 3/3 1050 м
[Sc]
+32.8 +19.8 46 +39 +39 очень
душно
999.1 999.0
03 23.06 ЮЗ 1 2000 м мгла 4/0
[Ac trans]
+33.2 +22.7 54 +43 +50 опасность
перегрева
1000.5 1001.0 +32.0 +41.6
06 23.06 З 1 2000 м мгла 4/1 900 м
[Sc Ac trans]
+36.2 +22.3 45 +45 +62 опасность
перегрева
1000.4 1000.0
09 23.06 З 1 2000 м мгла 4/0
[Ac trans]
+39.4 +21.0 35 +46 +62 опасность
перегрева
997.9 998.0
12 23.06 ЮЗ 1 2000 м мгла 6/6 900 м
[Cu Sc]
+39.8 +20.4 33 +46 +47 опасность
перегрева
995.3 995.0 +40.2
15 23.06 ЮЗ 1 2000 м зарница 6/5 750 м
[Cb calv Ac trans]
+36.8 +20.2 38 +43 +43 опасность
перегрева
996.7 997.0
18 23.06 В 2 2000 м мгла 4/1 900 м
[Sc Ac trans]
+32.6 +22.1 54 +41 +41 опасность
перегрева
999.0 999.0
21 23.06 штиль 0 2000 м мгла 4/0
[Ac trans]
+31.8 +23.1 60 +42 +42 опасность
перегрева
997.6 998.0
00 24.06 штиль 0 2000 м мгла 3/0
[Ci fib]
+31.2 +23.1 62 +41 +41 опасность
перегрева
998.3 998.0
03 24.06 ЮЗ 2 2000 м 9/6 1050 м
[Sc Ac trans]
+32.0 +21.9 55 +41 +42 опасность
перегрева
999.8 1000.0 +30.6 +40.2
06 24.06 З 1 2000 м мгла 6/5 1200 м
[Sc Ac trans]
+35.2 +22.5 48 +44 +56 опасность
перегрева
1000.1 1000.0
09 24.06 ЮЗ 1 2000 м мгла 6/4 1050 м
[Sc Ac trans]
+39.0 +22.0 38 +47 +57 опасность
перегрева
997.4 997.0
12 24.06 Ю 1 2000 м мгла 5/5 900 м
[Cu Sc]
+39.4 +20.2 33 +45 +47 опасность
перегрева
994.9 995.0 +39.8
15 24.06 штиль 0 2000 м в посл. час гроза {дождь} 10/6 450 м
[Frnb As op]
+28.2 +25.1 83 +41 +41 опасность
перегрева
998.9 999.0 13
18 24.06 С 2 2000 м в посл. час гроза {дождь} 10/8 900 м
[Cb cap As op]
+28.2 +21.0 65 +35 +35 очень
душно
1000.6 1001.0 13
21 24.06 штиль 0 2000 м в посл. час гроза 10/8 900 м
[Cb cap As op]
+27.8 +23.1 76 +37 +37 очень
душно
1000.0 1000.0 13
00 25.06 штиль 0 2000 м мгла {гроза} 6/3 1050 м
[Sc Ac trans]
+28.4 +22.8 72 +38 +38 очень
душно
997.7 998.0 13
03 25.06 СЗ 1 2000 м мгла 5/3 1050 м
[Sc Ac trans Ci fib]
+31.2 +23.1 62 +41 +46 опасность
перегрева
998.9 999.0 +27.1 +39.8 13
06 25.06 Ю 1 2000 м мгла 9/5 900 м
[Sc Ac trans]
+34.6 +23.4 52 +45 +51 опасность
перегрева
998.2 998.0
09 25.06 штиль 0 2000 м мгла 8/4 900 м
[Sc Ac trans Ci fib]
+38.2 +20.1 35 +44 +54 опасность
перегрева
994.6 995.0
12 25.06 штиль 0 2000 м мгла 5/4 750 м
[Cu Sc Ci fib]
+39.2 +20.5 34 +45 +48 опасность
перегрева
991.8 992.0 +39.2
15 25.06 ЮЗ 1 2000 м мгла 8/4 900 м
[Sc Ac trans]
+37.2 +20.3 37 +43 +43 опасность
перегрева
993.5 994.0
18 25.06 ЮЗ 1 2000 м мгла 8/4 900 м
[Sc Ac trans]
+34.6 +19.9 42 +40 +40 очень
душно
995.3 995.0

 

Местоположение метеостанции Jodhpur (Rajasthan, Индия): широта 26.30 долгота 73.02 высота над уровнем моря 224 м.

В архиве по умолчанию представлена погода в Jodhpur за последнюю неделю. Архивные данные за месяц целиком и за предыдущие месяцы, начиная с января 2011 года, Вы можете получить, выбрав интересующий диапазон дат из раскрывающегося списка и нажав кнопку "Ввод!".


*Определитесь, кто Вы:
робот инопланетянин человек

Внимание! Время в таблицах - всемирное. Для получения местного времени необходимо прибавить поправку, которая в Jodhpur равна 5.5 ч.

Смотрите также архив погоды в соседних городах и на ближайших метеорологических станциях:

Погода в Ajmer (Rajasthan, Индия) (160 км)
Погода в Barmer (Rajasthan, Индия) (175 км)
Погода в Bikaner (Rajasthan, Индия) (191 км)
Погода в Mount Abu (Rajasthan, Индия) (191 км)
Погода в Bhilwara (Rajasthan, Индия) (193 км)
Погода в Maharana Pratap Airport (Rajasthan, Индия) (206 км)
Погода в Jaisalmer (Rajasthan, Индия) (219 км)
Погода в Chittorgarh (Rajasthan, Индия) (226 км)
Погода в Deesa (Gujarat, Индия) (248 км)
Погода в Jaipur (Rajasthan, Индия) (283 км)

Пояснения к столбцам:

Ветер - указаны скорость ветра в м/с - средняя за 10 мин, порывы в срок и между сроками (в фигурных скобках) и направление, откуда дует ветер: С - северный, СВ - северо-восточный, В - восточный, ЮВ - юго-восточный, Ю - южный, ЮЗ - юго-западный, З - западный, СЗ - северо-западный.
Видимость - горизонтальная дальность видимости в метрах или километрах. При видимости от 1 до 10 км при отсутствии осадков обычно наблюдается дымка, при ухудшении видимости до 1 км и менее - туман. В сухую погоду видимость может ухудшаться дымом, пылью или мглою.
Явления - указаны атмосферные явления, наблюдавшиеся в срок или в последний час перед сроком; фигурными скобками обозначены явления, наблюдавшиеся между сроками (за 1-3 часа до срока); квадратными скобками обозначены град или гололедные отложения с указанием их диаметра в мм.
Облачность - указаны через наклонную черту общая и нижняя облачность в баллах и высота нижней границы облаков в метрах; квадратными скобками обозначены формы облаков: Ci - перистые, Cs - перисто-слоистые, Cc - перисто-кучевые, Ac - высококучевые, As - высокослоистые, Sc - слоисто-кучевые, Ns - слоисто-дождевые, Cu - кучевые, Cb - кучево-дождевые. Подробнее классификацию облаков см. в Атласе облаков (PDF).
T - Температура воздуха - температура, измеренная на высоте 2 м над землей.
Td - Температура точки росы - температура, при понижении до которой содержащийся в воздухе водяной пар достигнет насыщения.
f - Относительная влажность воздуха - влажноcть воздуха, измеренная на высоте 2 м над землей.
Te - Эффективная температура - температура, которую ощущает одетый по сезону человек в тени. Характеристика душности погоды. При расчете учитывается влияние влажности воздуха и скорости ветра на теплоощущения человека.
Tes - Эффективная температура на солнце - температура, которую ощущает человек, с поправкой на солнечный нагрев. Характеристика знойности погоды. Зависит от высоты солнца над горизонтом, облачности и скорости ветра. Ночью, в пасмурную погоду, а также при ветре 12 м/с и более поправка равна нулю.
P - Атмосферное давление - приведенное к уровню моря атмосферное давление.
Po - Атмосферное давление - измеренное на уровне метеостанции атмосферное давление.
Tmin - Минимальная температура - минимум температуры воздуха на высоте 2 м над землей.
Tmax - Максимальная температура - максимум температуры воздуха на высоте 2 м над землей.
R - Количество осадков - Количество выпавших осадков за период времени, мм. При наведении курсора мыши на число - период времени, за который выпало указанное количество осадков.
R24 - Количество осадков - Количество выпавших осадков за 24 часа, мм.
S - Снежный покров - Высота снежного покрова, см. При наведении курсора мыши на число - состояние снежного покрова и степень покрытия местности в баллах.